Location: *
(33.8649°S, 62.1526°E)
Time: 13:09:16
(UTC+00:00)

MOS 1 - Pass Details

Date: 17 January 2021
Orbit: 878 x 891 km, 99.1° (Epoch: 02 March)

Event Time Altitude Azimuth Distance (km) Brightness Sun altitude
Rises 16:55:40 0° 169° (S) 3,508 7.9 -19.8°
Reaches altitude 10° 16:58:05 10° 170° (S) 2,564 7.1 -20.2°
Maximum altitude 17:03:47 76° 254° (WSW) 917 4.4 -21.0°
Enters shadow 17:08:59 12° 339° (NNW) 2,373 6.3 -21.8°
